QPF
0.00 0.00 0.00 0.00 0.00 0.00 0.01 0.08 0.01 0.03 0.03 0.02 0.04 0.01 0.00 0.00 0.00 0.00 0.00 0.00 0.00 0.00 0.00 0.02 0.04 0.04 0.01 0.00 0.00 0.00 0.00 0.03 0.01 0.01 0.01 0.07 0.04 0.01 0.03 0.04 0.02 0.02 0.02 0.01 0.04 0.03 0.02 0.01 0.02
0.00 0.00 0.00 0.00 0.00 0.01 0.03 0.03 0.00 0.02 0.00 0.00 0.00 0.00 0.00 0.00 0.00 0.00 0.00 0.00 0.00 0.00 0.00 0.00 0.05 0.03 0.00 0.00 0.00 0.00 0.00 0.00 0.00 0.01 0.00 0.02 0.00 0.00 0.03 0.04 0.00 0.00 0.00 0.01 0.03 0.01 0.00 0.00 0.00
0.00 0.00 0.00 0.01 0.02 0.02 0.06 0.06 0.00 0.01 0.00 0.00 0.00 0.00 0.00 0.00 0.00 0.00 0.00 0.00 0.00 0.00 0.00 0.00 0.01 0.01 0.00 0.00 0.00 0.00 0.00 0.00 0.00 0.00 0.00 0.00 0.00 0.02 0.01 0.00 0.00 0.00 0.00 0.01 0.00 0.00 0.00 0.00 0.00
0.00 0.00 0.00 0.03 0.03 0.01 0.03 0.03 0.00 0.01 0.00 0.00 0.00 0.00 0.00 0.00 0.00 0.00 0.00 0.00 0.00 0.00 0.00 0.00 0.00 0.00 0.00 0.00 0.00 0.00 0.00 0.00 0.00 0.01 0.00 0.00 0.00 0.00 0.00 0.00 0.00 0.00 0.01 0.00 0.00 0.00 0.01 0.03 0.03
0.00 0.00 0.01 0.00 0.01 0.00 0.00 0.02 0.01 0.00 0.00 0.00 0.00 0.00 0.00 0.00 0.00 0.00 0.00 0.00 0.00 0.00 0.00 0.00 0.01 0.00 0.00 0.00 0.00 0.00 0.02 0.01 0.00 0.01 0.00 0.01 0.01 0.00 0.00 0.00 0.00 0.00 0.00 0.00 0.00 0.01 0.07 0.12 0.06
0.00 0.00 0.00 0.00 0.00 0.00 0.00 0.00 0.02 0.00 0.00 0.00 0.00 0.00 0.00 0.00 0.00 0.00 0.00 0.00 0.00 0.00 0.00 0.00 0.00 0.00 0.00 0.00 0.03 0.02 0.01 0.01 0.00 0.00 0.00 0.01 0.00 0.01 0.00 0.00 0.00 0.00 0.00 0.00 0.00 0.00 0.02 0.03 0.02
0.00 0.00 0.00 0.00 0.00 0.00 0.00 0.00 0.02 0.01 0.00 0.00 0.00 0.00 0.00 0.00 0.00 0.00 0.00 0.00 0.00 0.00 0.00 0.00 0.00 0.00 0.00 0.03 0.02 0.00 0.00 0.00 0.01 0.00 0.01 0.01 0.00 0.01 0.00 0.00 0.00 0.00 0.00 0.00 0.00 0.00 0.00 0.00 0.00
0.00 0.00 0.00 0.00 0.00 0.00 0.00 0.00 0.00 0.00 0.00 0.00 0.00 0.00 0.00 0.00 0.00 0.00 0.00 0.00 0.00 0.00 0.00 0.00 0.00 0.00 0.00 0.00 0.00 0.00 0.00 0.01 0.02 0.01 0.03 0.02 0.00 0.01 0.01 0.00 0.01 0.00 0.00 0.00 0.00 0.00 0.00 0.00 0.00
0.00 0.01 0.00 0.00 0.00 0.00 0.00 0.00 0.00 0.00 0.00 0.00 0.00 0.00 0.00 0.00 0.00 0.00 0.00 0.00 0.00 0.00 0.00 0.00 0.00 0.00 0.00 0.00 0.00 0.00 0.01 0.00 0.01 0.01 0.04 0.10 0.05 0.00 0.01 0.00 0.01 0.01 0.00 0.00 0.00 0.00 0.00 0.00 0.00
0.00 0.00 0.00 0.00 0.00 0.00 0.00 0.00 0.00 0.00 0.00 0.00 0.00 0.00 0.00 0.00 0.00 0.00 0.00 0.00 0.00 0.00 0.00 0.00 0.00 0.00 0.00 0.00 0.00 0.00 0.00 0.00 0.00 0.00 0.03 0.01 0.06 0.00 0.00 0.02 0.02 0.01 0.00 0.00 0.00 0.00 0.00 0.00 0.00
0.00 0.00 0.00 0.00 0.00 0.00 0.00 0.00 0.00 0.00 0.00 0.00 0.00 0.00 0.00 0.00 0.00 0.00 0.00 0.00 0.00 0.00 0.00 0.00 0.00 0.00 0.00 0.00 0.00 0.00 0.00 0.00 0.00 0.03 0.02 0.01 0.01 0.00 0.00 0.01 0.00 0.00 0.00 0.00 0.00 0.00 0.00 0.00 0.00
0.00 0.00 0.00 0.00 0.00 0.00 0.00 0.00 0.00 0.00 0.00 0.00 0.00 0.00 0.00 0.00 0.00 0.00 0.00 0.00 0.00 0.00 0.00 0.00 0.00 0.00 0.00 0.00 0.00 0.00 0.00 0.00 0.00 0.01 0.00 0.00 0.00 0.00 0.00 0.06 0.05 0.02 0.00 0.00 0.00 0.00 0.00 0.00 0.00
0.00 0.00 0.00 0.00 0.00 0.00 0.00 0.00 0.00 0.00 0.00 0.00 0.00 0.00 0.00 0.00 0.00 0.00 0.00 0.00 0.00 0.00 0.00 0.00 0.00 0.00 0.00 0.00 0.00 0.00 0.00 0.00 0.00 0.00 0.00 0.00 0.00 0.00 0.00 0.03 0.05 0.06 0.00 0.00 0.00 0.00 0.00 0.00 0.00
0.00 0.00 0.00 0.00 0.00 0.00 0.00 0.00 0.00 0.00 0.00 0.00 0.00 0.00 0.00 0.00 0.00 0.00 0.00 0.00 0.00 0.00 0.00 0.00 0.00 0.00 0.00 0.00 0.00 0.00 0.00 0.00 0.00 0.00 0.01 0.02 0.00 0.00 0.00 0.00 0.00 0.00 0.00 0.00 0.00 0.00 0.00 0.02 0.00
0.00 0.00 0.00 0.00 0.00 0.00 0.00 0.00 0.00 0.00 0.00 0.00 0.00 0.00 0.00 0.00 0.00 0.00 0.00 0.00 0.00 0.00 0.00 0.01 0.00 0.00 0.00 0.00 0.00 0.00 0.00 0.00 0.00 0.00 0.00 0.00 0.00 0.00 0.00 0.00 0.00 0.00 0.00 0.04 0.02 0.00 0.00 0.04 0.00
0.00 0.00 0.00 0.00 0.00 0.00 0.00 0.00 0.00 0.00 0.00 0.00 0.00 0.00 0.00 0.00 0.00 0.00 0.00 0.00 0.00 0.00 0.00 0.02 0.01 0.00 0.00 0.00 0.00 0.00 0.00 0.00 0.00 0.00 0.00 0.00 0.00 0.00 0.00 0.00 0.00 0.00 0.00 0.03 0.00 0.00 0.00 0.00 0.00
0.00 0.00 0.00 0.00 0.00 0.00 0.00 0.00 0.00 0.00 0.00 0.00 0.00 0.00 0.00 0.00 0.00 0.00 0.00 0.00 0.00 0.00 0.00 0.01 0.02 0.00 0.00 0.00 0.00 0.00 0.00 0.00 0.00 0.00 0.00 0.00 0.00 0.00 0.00 0.02 0.00 0.00 0.00 0.00 0.00 0.00 0.00 0.00 0.00
0.00 0.00 0.00 0.00 0.00 0.00 0.00 0.00 0.00 0.00 0.00 0.00 0.00 0.00 0.00 0.00 0.00 0.00 0.00 0.00 0.00 0.00 0.00 0.00 0.00 0.01 0.00 0.00 0.00 0.00 0.00 0.00 0.00 0.00 0.00 0.00 0.00 0.00 0.00 0.00 0.00 0.00 0.00 0.00 0.00 0.00 0.00 0.00 0.00
0.00 0.00 0.00 0.00 0.00 0.00 0.00 0.00 0.00 0.00 0.00 0.00 0.00 0.00 0.00 0.00 0.00 0.00 0.00 0.00 0.00 0.00 0.00 0.00 0.00 0.00 0.00 0.00 0.00 0.00 0.00 0.00 0.00 0.00 0.00 0.00 0.00 0.00 0.00 0.00 0.00 0.00 0.00 0.00 0.00 0.00 0.00 0.00 0.00
0.00 0.00 0.00 0.00 0.00 0.00 0.00 0.00 0.00 0.00 0.00 0.00 0.00 0.00 0.00 0.00 0.00 0.00 0.00 0.00 0.00 0.00 0.00 0.00 0.00 0.00 0.00 0.00 0.01 0.00 0.00 0.00 0.00 0.00 0.00 0.00 0.00 0.00 0.00 0.00 0.00 0.00 0.00 0.00 0.00 0.00 0.00 0.01 0.01
0.00 0.00 0.00 0.00 0.00 0.00 0.00 0.00 0.00 0.00 0.00 0.00 0.00 0.00 0.00 0.00 0.00 0.00 0.00 0.00 0.00 0.00 0.00 0.00 0.00 0.00 0.00 0.02 0.06 0.01 0.00 0.00 0.00 0.00 0.00 0.00 0.00 0.00 0.00 0.00 0.00 0.00 0.00 0.00 0.00 0.00 0.00 0.02 0.02
0.00 0.00 0.00 0.00 0.00 0.00 0.00 0.00 0.00 0.00 0.00 0.00 0.00 0.00 0.00 0.00 0.00 0.00 0.00 0.00 0.00 0.02 0.02 0.00 0.00 0.00 0.00 0.02 0.08 0.02 0.00 0.00 0.00 0.00 0.00 0.00 0.00 0.00 0.00 0.00 0.00 0.00 0.00 0.00 0.00 0.01 0.05 0.12 0.05
0.00 0.00 0.00 0.00 0.00 0.00 0.00 0.00 0.00 0.00 0.00 0.00 0.00 0.00 0.00 0.00 0.00 0.00 0.00 0.00 0.04 0.06 0.07 0.02 0.00 0.00 0.00 0.01 0.09 0.04 0.00 0.00 0.00 0.00 0.00 0.00 0.00 0.00 0.00 0.00 0.00 0.00 0.00 0.00 0.00 0.07 0.09 0.11 0.11
0.00 0.00 0.00 0.00 0.00 0.00 0.00 0.00 0.00 0.00 0.00 0.00 0.00 0.00 0.00 0.00 0.00 0.00 0.00 0.00 0.04 0.11 0.11 0.03 0.00 0.00 0.00 0.01 0.05 0.03 0.02 0.00 0.00 0.00 0.00 0.00 0.00 0.00 0.00 0.00 0.00 0.00 0.00 0.00 0.00 0.01 0.05 0.13 0.07
0.00 0.00 0.00 0.00 0.00 0.00 0.00 0.00 0.00 0.00 0.00 0.00 0.00 0.00 0.00 0.00 0.00 0.00 0.00 0.00 0.02 0.08 0.11 0.02 0.00 0.00 0.00 0.01 0.02 0.01 0.00 0.00 0.00 0.00 0.00 0.00 0.00 0.00 0.00 0.00 0.00 0.00 0.00 0.00 0.00 0.00 0.01 0.05 0.04
0.00 0.00 0.00 0.00 0.00 0.00 0.00 0.00 0.00 0.00 0.00 0.00 0.00 0.00 0.00 0.00 0.00 0.00 0.00 0.00 0.01 0.05 0.09 0.05 0.00 0.00 0.00 0.00 0.02 0.01 0.00 0.00 0.00 0.00 0.00 0.00 0.01 0.01 0.02 0.01 0.00 0.00 0.00 0.00 0.00 0.00 0.00 0.00 0.00
0.00 0.00 0.00 0.00 0.00 0.00 0.00 0.00 0.00 0.00 0.00 0.00 0.00 0.00 0.00 0.00 0.00 0.00 0.00 0.00 0.00 0.01 0.01 0.05 0.03 0.00 0.00 0.00 0.02 0.01 0.00 0.00 0.00 0.00 0.00 0.00 0.00 0.01 0.06 0.08 0.02 0.00 0.00 0.01 0.03 0.00 0.02 0.02 0.00
0.00 0.00 0.00 0.00 0.00 0.00 0.00 0.00 0.00 0.00 0.00 0.00 0.00 0.00 0.00 0.00 0.00 0.00 0.00 0.00 0.00 0.00 0.00 0.00 0.00 0.00 0.00 0.00 0.02 0.03 0.01 0.00 0.00 0.00 0.00 0.00 0.00 0.00 0.02 0.07 0.10 0.05 0.01 0.00 0.05 0.01 0.18 0.10 0.06
0.00 0.00 0.00 0.00 0.00 0.00 0.00 0.00 0.00 0.00 0.00 0.00 0.00 0.00 0.00 0.00 0.00 0.00 0.00 0.00 0.01 0.00 0.00 0.00 0.00 0.00 0.00 0.00 0.00 0.02 0.05 0.04 0.00 0.00 0.00 0.00 0.00 0.00 0.00 0.02 0.05 0.06 0.08 0.03 0.15 0.06 0.24 0.07 0.10
0.00 0.00 0.00 0.00 0.00 0.00 0.00 0.00 0.00 0.00 0.00 0.00 0.00 0.00 0.00 0.00 0.00 0.00 0.00 0.00 0.00 0.00 0.00 0.00 0.00 0.00 0.00 0.02 0.03 0.00 0.01 0.04 0.02 0.01 0.00 0.00 0.00 0.00 0.00 0.00 0.00 0.01 0.02 0.05 0.06 0.19 0.08 0.05 0.03
MSLP
1008.98 1009.43 1009.83 1010.23 1010.75 1010.82 1011.18 1010.73 1010.05 1009.60 1009.47 1009.40 1009.69 1010.23 1010.70 1011.23 1011.86 1013.03 1012.42 1012.77 1013.47 1014.42 1014.88 1015.19 1015.34 1015.58 1015.71 1015.77 1015.98 1016.21 1016.23 1016.25 1016.25 1016.24 1016.22 1016.35 1016.56 1016.72 1016.75 1016.91 1017.22 1017.40 1017.38 1017.47 1017.54 1017.63 1017.80 1017.94 1018.20
1009.49 1009.80 1009.82 1009.89 1010.83 1011.18 1011.36 1010.72 1010.40 1009.83 1009.12 1009.38 1009.90 1010.03 1010.64 1011.43 1011.83 1012.54 1012.93 1013.22 1013.38 1014.32 1014.96 1015.23 1015.52 1015.68 1015.82 1015.88 1016.05 1016.25 1016.39 1016.48 1016.59 1016.55 1016.58 1016.65 1016.75 1016.82 1016.87 1017.19 1017.28 1017.42 1017.49 1017.59 1017.75 1017.91 1018.16 1018.38 1018.68
1009.17 1009.13 1009.67 1010.22 1011.18 1011.54 1011.36 1010.68 1010.26 1009.52 1009.06 1009.12 1009.68 1010.11 1010.81 1011.72 1012.21 1012.69 1012.82 1013.35 1013.81 1014.58 1015.00 1015.32 1015.57 1015.83 1016.02 1016.18 1016.27 1016.43 1016.51 1016.72 1016.75 1016.68 1016.76 1016.90 1017.05 1017.15 1017.16 1017.19 1017.38 1017.54 1017.66 1017.86 1018.06 1018.16 1018.30 1018.51 1018.86
1009.33 1009.86 1009.87 1010.46 1011.28 1011.29 1010.63 1009.92 1009.98 1009.80 1009.24 1009.35 1009.71 1010.48 1011.01 1011.08 1012.16 1012.64 1013.23 1013.68 1014.25 1014.80 1015.19 1015.45 1015.74 1016.00 1016.19 1016.46 1016.62 1016.64 1016.69 1016.82 1016.89 1016.95 1016.94 1017.06 1017.22 1017.26 1017.36 1017.46 1017.62 1017.76 1017.94 1018.14 1018.31 1018.49 1018.69 1018.84 1018.97
1009.64 1010.02 1010.90 1010.99 1010.47 1010.15 1009.83 1009.52 1009.62 1009.32 1009.13 1009.39 1009.73 1010.72 1011.59 1012.11 1012.26 1013.02 1013.63 1014.13 1014.56 1015.14 1015.37 1015.65 1015.87 1016.11 1016.43 1016.66 1016.82 1016.84 1016.87 1017.01 1017.15 1017.16 1017.14 1017.16 1017.27 1017.53 1017.71 1017.72 1017.92 1018.01 1018.20 1018.38 1018.60 1018.71 1018.96 1019.21 1019.24
1010.15 1010.84 1011.55 1011.21 1010.51 1009.89 1009.50 1009.25 1009.10 1008.89 1009.27 1009.50 1010.22 1010.90 1012.19 1012.59 1012.79 1013.35 1013.82 1014.43 1014.76 1015.34 1015.59 1015.89 1016.15 1016.38 1016.62 1016.79 1016.87 1016.88 1016.98 1017.14 1017.30 1017.29 1017.33 1017.39 1017.51 1017.82 1017.97 1018.13 1018.20 1018.30 1018.54 1018.70 1018.75 1018.93 1019.14 1019.41 1019.48
1010.07 1011.02 1011.37 1010.85 1010.01 1009.70 1009.17 1008.83 1008.70 1008.69 1009.00 1009.49 1009.95 1011.32 1012.79 1013.13 1013.44 1013.60 1014.12 1014.65 1014.95 1015.47 1015.83 1016.12 1016.43 1016.65 1016.73 1016.86 1017.00 1016.99 1017.11 1017.28 1017.32 1017.48 1017.53 1017.57 1017.81 1017.99 1018.17 1018.32 1018.42 1018.58 1018.81 1018.96 1019.01 1019.26 1019.44 1019.44 1019.47
1010.40 1010.67 1010.71 1010.12 1009.62 1009.06 1008.52 1008.53 1008.37 1008.44 1008.71 1009.20 1009.78 1011.25 1012.63 1013.07 1013.64 1014.17 1014.78 1015.19 1015.51 1015.72 1015.90 1016.32 1016.64 1016.88 1016.99 1017.06 1017.10 1017.18 1017.33 1017.43 1017.64 1017.72 1017.81 1017.84 1018.05 1018.20 1018.36 1018.50 1018.64 1018.85 1019.08 1019.15 1019.38 1019.50 1019.63 1019.71 1019.72
1010.22 1010.61 1010.19 1009.27 1009.00 1008.54 1008.38 1008.23 1008.37 1008.16 1008.57 1008.87 1009.64 1010.27 1011.36 1012.87 1013.79 1014.44 1015.21 1015.74 1016.08 1016.25 1016.36 1016.50 1016.82 1017.01 1017.14 1017.23 1017.21 1017.37 1017.51 1017.69 1017.90 1018.03 1018.09 1018.21 1018.53 1018.64 1018.72 1018.88 1018.98 1019.16 1019.34 1019.48 1019.65 1019.79 1019.77 1019.85 1019.95
1010.11 1010.21 1009.06 1008.14 1007.93 1008.48 1008.20 1007.85 1008.01 1008.31 1008.55 1009.07 1009.95 1010.61 1011.88 1012.98 1013.81 1014.38 1015.07 1015.59 1016.09 1016.27 1016.48 1016.75 1016.85 1017.09 1017.20 1017.20 1017.37 1017.60 1017.69 1017.93 1018.15 1018.40 1018.51 1018.86 1018.95 1019.02 1019.10 1019.03 1019.12 1019.41 1019.55 1019.68 1019.83 1019.87 1020.11 1020.41 1020.49
1009.13 1008.79 1007.46 1007.44 1007.28 1007.76 1007.78 1007.87 1007.83 1008.10 1008.73 1008.72 1009.80 1010.88 1012.20 1013.09 1013.95 1014.33 1014.72 1014.70 1015.07 1015.81 1016.41 1016.69 1016.81 1017.04 1017.22 1017.21 1017.62 1017.82 1017.92 1018.13 1018.35 1018.57 1018.81 1019.07 1019.21 1019.24 1019.34 1019.43 1019.44 1019.72 1019.82 1019.95 1020.19 1020.53 1020.62 1020.71 1020.80
1008.38 1007.27 1007.22 1007.14 1007.06 1007.38 1007.79 1007.52 1007.76 1008.03 1007.86 1008.27 1009.60 1010.61 1011.87 1012.97 1013.68 1014.08 1014.64 1015.11 1015.42 1015.85 1016.16 1016.60 1016.77 1017.01 1017.21 1017.37 1017.68 1017.88 1018.08 1018.30 1018.58 1018.71 1018.82 1019.16 1019.45 1019.50 1019.58 1019.79 1019.91 1020.06 1020.21 1020.32 1020.55 1020.86 1021.00 1021.00 1020.97
1007.48 1007.03 1006.88 1007.10 1007.20 1007.42 1007.52 1007.50 1007.70 1008.10 1008.12 1008.85 1010.04 1011.14 1011.89 1012.56 1013.10 1013.63 1013.87 1014.55 1015.29 1015.78 1016.09 1016.52 1016.73 1016.97 1017.13 1017.38 1017.71 1017.88 1018.04 1018.29 1018.56 1018.81 1018.90 1019.14 1019.53 1019.60 1019.73 1019.89 1020.12 1020.41 1020.52 1020.48 1020.75 1021.01 1021.09 1021.21 1021.33
1006.42 1006.52 1007.11 1007.53 1007.46 1007.57 1007.90 1007.80 1007.90 1007.97 1008.48 1009.21 1010.03 1010.89 1011.70 1012.08 1012.50 1013.31 1014.00 1014.37 1014.81 1015.39 1015.75 1016.28 1016.65 1016.80 1017.04 1017.28 1017.57 1017.77 1017.94 1018.18 1018.58 1018.82 1018.90 1019.14 1019.40 1019.56 1019.80 1020.01 1020.17 1020.41 1020.62 1020.71 1020.83 1021.12 1021.45 1021.39 1021.50
1006.26 1006.68 1007.18 1007.17 1007.55 1007.80 1007.96 1007.83 1007.68 1007.72 1008.37 1009.04 1009.77 1010.81 1011.51 1011.85 1012.33 1012.61 1012.93 1013.62 1014.04 1014.60 1015.28 1015.85 1016.27 1016.55 1016.92 1017.13 1017.39 1017.65 1017.80 1018.03 1018.37 1018.61 1018.82 1019.07 1019.40 1019.55 1019.74 1020.03 1020.29 1020.37 1020.66 1020.92 1021.17 1021.30 1021.60 1021.58 1021.71
1006.53 1007.15 1007.50 1006.18 1007.14 1007.23 1008.03 1007.58 1007.46 1007.74 1008.33 1009.00 1009.47 1010.01 1010.80 1011.21 1011.53 1012.09 1012.56 1012.90 1013.56 1014.45 1014.85 1015.54 1016.03 1016.44 1016.78 1016.92 1017.20 1017.34 1017.72 1017.96 1018.04 1018.29 1018.64 1018.88 1019.22 1019.37 1019.71 1019.92 1020.08 1020.28 1020.61 1021.03 1021.26 1021.44 1021.87 1022.03 1022.11
1008.02 1007.74 1007.28 1006.61 1006.83 1007.16 1007.84 1007.68 1007.56 1007.79 1008.11 1008.73 1009.12 1009.48 1009.75 1010.48 1010.87 1011.27 1011.73 1012.35 1013.00 1013.59 1014.47 1015.20 1015.56 1015.96 1016.39 1016.65 1016.98 1017.22 1017.37 1017.74 1017.95 1018.09 1018.25 1018.58 1018.92 1019.11 1019.35 1019.62 1019.70 1020.04 1020.46 1020.86 1021.23 1021.81 1021.91 1022.17 1022.39
1008.84 1008.23 1007.36 1006.43 1006.47 1006.98 1007.73 1007.33 1007.47 1007.43 1007.82 1008.12 1008.66 1008.89 1009.21 1009.55 1010.00 1010.68 1011.04 1011.60 1012.34 1013.01 1013.85 1014.65 1015.19 1015.59 1016.13 1016.71 1016.97 1017.29 1017.44 1017.50 1017.72 1017.87 1018.08 1018.31 1018.64 1018.90 1019.08 1019.29 1019.57 1019.86 1020.34 1020.83 1021.24 1021.77 1022.03 1022.21 1022.48
1008.69 1008.13 1007.48 1006.35 1005.90 1006.32 1006.52 1006.84 1007.11 1007.32 1007.90 1007.91 1008.15 1008.36 1008.71 1008.96 1008.94 1009.49 1010.15 1010.81 1011.64 1012.49 1013.30 1014.21 1014.87 1015.34 1015.98 1016.56 1017.08 1017.42 1017.63 1017.51 1017.74 1017.75 1017.81 1018.19 1018.42 1018.69 1018.96 1019.17 1019.38 1019.72 1020.17 1020.43 1020.92 1021.57 1021.95 1022.30 1022.55
1008.12 1007.70 1007.15 1006.19 1005.90 1006.48 1006.79 1006.74 1006.36 1006.83 1006.42 1006.55 1006.72 1007.43 1007.74 1008.30 1008.40 1009.16 1009.97 1010.68 1011.26 1011.87 1012.66 1013.43 1014.13 1014.92 1015.42 1015.95 1016.43 1016.89 1017.13 1017.25 1017.11 1017.32 1017.66 1017.99 1018.34 1018.46 1018.83 1019.05 1019.25 1019.46 1020.02 1020.42 1020.76 1021.10 1021.78 1022.07 1022.30
1007.54 1007.23 1006.85 1006.89 1006.48 1006.46 1006.63 1006.98 1006.52 1006.32 1006.35 1006.54 1006.55 1006.65 1007.18 1007.12 1007.67 1008.51 1009.41 1010.03 1010.76 1011.49 1012.07 1012.81 1013.42 1014.18 1014.87 1015.46 1016.28 1016.80 1017.08 1017.13 1017.51 1017.64 1017.76 1017.89 1018.15 1018.38 1018.60 1018.87 1019.01 1019.22 1019.56 1020.11 1020.34 1020.70 1021.24 1021.66 1021.93
1007.42 1006.92 1006.95 1007.19 1007.69 1007.93 1007.82 1008.31 1006.92 1006.33 1005.52 1005.65 1005.29 1005.58 1005.98 1006.35 1007.00 1007.72 1008.51 1009.65 1010.53 1011.20 1011.89 1012.25 1013.07 1013.75 1014.46 1015.06 1015.74 1016.17 1016.44 1016.93 1017.11 1017.22 1017.49 1017.69 1017.85 1018.10 1018.40 1018.68 1018.77 1018.87 1019.21 1019.73 1019.92 1020.25 1020.77 1021.24 1021.58
1007.20 1006.96 1007.58 1007.91 1008.65 1008.93 1009.16 1009.06 1006.62 1006.27 1005.70 1004.66 1004.01 1004.16 1004.79 1005.26 1005.92 1006.73 1007.69 1009.18 1010.32 1011.06 1011.66 1012.49 1012.74 1013.51 1014.18 1014.70 1015.14 1015.86 1016.22 1016.32 1016.59 1016.94 1017.32 1017.60 1017.63 1017.77 1017.99 1018.41 1018.62 1018.78 1018.85 1019.13 1019.49 1019.91 1020.42 1020.79 1021.06
1007.09 1007.66 1008.57 1009.52 1010.10 1010.83 1010.22 1009.81 1007.60 1006.15 1004.47 1003.96 1003.18 1003.48 1003.56 1004.38 1005.52 1006.60 1007.63 1008.77 1009.84 1010.75 1011.49 1012.22 1012.59 1012.91 1013.51 1014.14 1014.69 1015.30 1016.00 1015.97 1016.45 1016.96 1017.26 1017.45 1017.62 1017.77 1017.74 1017.95 1018.18 1018.28 1018.47 1018.75 1018.96 1019.31 1019.79 1020.20 1020.44
1007.63 1009.24 1010.59 1011.73 1012.33 1012.02 1010.88 1010.20 1007.78 1005.20 1004.45 1003.68 1002.73 1002.52 1003.21 1004.30 1005.33 1006.28 1007.26 1008.12 1009.16 1009.96 1010.82 1011.58 1012.11 1012.28 1012.83 1013.36 1013.83 1014.54 1014.99 1015.38 1015.78 1016.18 1016.67 1017.08 1017.38 1017.47 1017.46 1017.57 1017.79 1017.89 1017.84 1018.06 1018.27 1018.73 1019.03 1019.50 1019.72
1008.31 1009.71 1011.40 1012.77 1013.69 1012.70 1011.12 1009.80 1007.02 1005.61 1004.47 1003.10 1002.76 1003.41 1004.18 1004.62 1005.40 1006.17 1007.14 1007.97 1008.95 1009.65 1009.71 1010.45 1011.07 1011.40 1011.74 1012.36 1012.86 1013.37 1014.08 1014.50 1015.01 1015.43 1015.87 1016.31 1016.58 1016.74 1016.59 1016.96 1017.07 1017.18 1017.32 1017.49 1017.74 1018.18 1018.39 1018.63 1018.91
1008.61 1009.94 1010.96 1012.31 1013.76 1013.55 1011.63 1009.40 1007.40 1005.95 1005.09 1004.25 1004.11 1004.62 1005.20 1005.72 1006.31 1007.22 1007.83 1008.37 1008.86 1009.16 1009.47 1010.12 1010.33 1010.46 1011.00 1012.08 1013.18 1013.44 1013.51 1013.94 1014.26 1014.74 1015.15 1015.54 1015.86 1016.22 1016.38 1016.45 1016.72 1016.44 1016.69 1016.91 1017.28 1017.68 1017.81 1018.08 1018.16
1007.97 1009.38 1011.03 1012.41 1013.73 1013.86 1012.36 1010.88 1009.28 1007.81 1007.43 1006.64 1006.08 1006.32 1006.42 1006.58 1007.27 1007.90 1008.20 1008.48 1008.66 1009.04 1009.26 1009.69 1010.08 1010.65 1011.59 1012.35 1013.31 1013.63 1013.49 1013.36 1013.60 1014.26 1014.69 1014.88 1015.15 1015.56 1015.79 1016.11 1016.26 1016.24 1016.30 1016.67 1016.87 1017.09 1017.17 1017.50 1017.50
1008.85 1010.26 1011.36 1012.83 1013.57 1013.77 1013.35 1011.07 1009.38 1008.76 1008.10 1007.80 1007.33 1007.34 1007.43 1007.70 1008.09 1008.35 1008.47 1008.48 1008.73 1009.06 1009.10 1009.07 1009.31 1010.08 1011.88 1011.50 1012.29 1012.63 1013.44 1012.92 1012.95 1013.47 1013.95 1014.35 1014.67 1014.91 1015.26 1015.42 1015.74 1015.82 1015.95 1016.27 1016.47 1016.55 1016.42 1016.77 1016.95
1009.36 1010.26 1011.24 1012.81 1013.69 1013.79 1013.07 1011.28 1009.64 1008.71 1008.59 1008.00 1007.70 1007.94 1008.06 1008.33 1008.71 1008.78 1008.63 1008.76 1009.17 1009.39 1009.57 1009.61 1009.53 1009.65 1010.69 1011.30 1011.48 1011.88 1012.58 1012.23 1012.51 1012.79 1013.17 1013.67 1014.13 1014.36 1014.54 1014.84 1015.09 1015.20 1015.38 1015.67 1015.86 1015.88 1015.85 1016.06 1016.44
Thickness
5825 5820 5816 5801 5774 5764 5752 5760 5779 5775 5778 5790 5794 5783 5778 5781 5771 5750 5788 5789 5783 5772 5766 5763 5762 5759 5760 5761 5761 5760 5762 5762 5761 5760 5758 5756 5757 5759 5761 5761 5759 5759 5760 5761 5762 5762 5761 5760 5758
5823 5819 5813 5799 5762 5744 5747 5774 5765 5775 5793 5795 5794 5791 5781 5771 5787 5780 5780 5788 5785 5774 5768 5766 5762 5760 5760 5761 5760 5760 5760 5759 5759 5758 5755 5756 5760 5762 5762 5762 5762 5762 5763 5763 5763 5762 5760 5758 5757
5828 5829 5805 5785 5764 5744 5745 5768 5774 5787 5799 5797 5790 5794 5785 5772 5785 5783 5790 5789 5784 5774 5770 5767 5764 5762 5761 5761 5761 5761 5761 5760 5760 5760 5759 5760 5761 5762 5763 5765 5765 5765 5765 5764 5764 5763 5761 5760 5758
5824 5812 5806 5776 5763 5768 5773 5783 5788 5785 5799 5803 5798 5780 5791 5802 5789 5790 5791 5788 5781 5774 5771 5767 5766 5764 5763 5761 5761 5763 5763 5763 5763 5763 5764 5764 5765 5765 5767 5768 5767 5767 5766 5765 5764 5762 5761 5760 5759
5821 5806 5778 5775 5783 5791 5795 5798 5796 5792 5796 5795 5799 5780 5779 5794 5797 5791 5788 5786 5779 5774 5771 5769 5768 5766 5764 5763 5762 5764 5765 5765 5764 5765 5767 5769 5768 5767 5767 5768 5768 5768 5767 5766 5764 5764 5762 5760 5759
5804 5802 5766 5764 5779 5796 5802 5806 5803 5801 5799 5796 5788 5784 5778 5794 5792 5789 5789 5784 5779 5774 5771 5770 5768 5766 5765 5765 5765 5767 5767 5767 5766 5767 5769 5769 5769 5768 5768 5767 5767 5767 5766 5765 5765 5764 5762 5760 5759
5807 5788 5774 5778 5781 5789 5801 5814 5805 5803 5799 5793 5801 5774 5777 5785 5790 5790 5787 5784 5779 5774 5770 5770 5767 5766 5767 5767 5768 5769 5769 5768 5769 5769 5771 5771 5771 5769 5768 5767 5768 5767 5766 5765 5764 5763 5761 5761 5761
5810 5799 5787 5789 5782 5793 5812 5813 5819 5812 5803 5817 5810 5775 5767 5787 5791 5787 5784 5780 5778 5775 5774 5772 5769 5767 5768 5768 5769 5770 5770 5770 5768 5769 5770 5771 5770 5769 5768 5767 5767 5766 5764 5764 5763 5762 5761 5761 5761
5823 5789 5780 5797 5795 5804 5818 5813 5823 5830 5815 5815 5810 5802 5801 5796 5791 5784 5777 5774 5771 5772 5774 5773 5771 5770 5769 5770 5771 5770 5770 5769 5769 5768 5769 5769 5769 5769 5768 5767 5766 5766 5765 5764 5762 5760 5761 5760 5759
5809 5787 5801 5823 5823 5809 5818 5822 5822 5817 5814 5807 5803 5805 5800 5795 5788 5782 5776 5772 5770 5772 5773 5773 5773 5772 5772 5771 5772 5771 5771 5770 5770 5768 5768 5767 5767 5767 5767 5767 5767 5765 5764 5763 5762 5761 5761 5759 5758
5821 5802 5831 5832 5837 5831 5824 5822 5830 5817 5804 5815 5801 5800 5796 5790 5786 5784 5782 5784 5781 5779 5776 5774 5774 5774 5773 5774 5773 5772 5772 5772 5771 5769 5768 5767 5768 5767 5766 5766 5766 5764 5764 5764 5762 5759 5758 5758 5758
5816 5836 5836 5837 5843 5835 5824 5835 5824 5824 5825 5835 5820 5812 5804 5794 5788 5788 5784 5782 5782 5780 5779 5777 5775 5774 5774 5774 5774 5774 5773 5772 5771 5771 5770 5769 5768 5768 5768 5766 5765 5763 5762 5762 5761 5760 5757 5756 5756
5828 5836 5842 5843 5841 5839 5839 5831 5828 5824 5836 5837 5823 5813 5805 5801 5799 5796 5795 5791 5785 5780 5781 5779 5777 5776 5775 5774 5774 5774 5775 5773 5772 5771 5771 5770 5769 5769 5768 5767 5765 5762 5762 5763 5762 5760 5759 5757 5755
5848 5844 5838 5835 5837 5839 5828 5829 5831 5832 5837 5830 5822 5814 5808 5807 5804 5799 5791 5790 5788 5785 5784 5782 5780 5778 5776 5776 5774 5775 5775 5775 5772 5771 5772 5771 5770 5770 5768 5767 5765 5764 5763 5763 5763 5760 5756 5755 5753
5852 5832 5834 5835 5834 5829 5835 5825 5825 5840 5838 5828 5826 5816 5812 5810 5808 5803 5802 5794 5793 5791 5788 5785 5783 5780 5778 5777 5776 5775 5775 5775 5775 5774 5772 5772 5771 5771 5769 5767 5765 5765 5763 5762 5760 5758 5756 5755 5753
5835 5827 5804 5842 5836 5840 5832 5803 5836 5843 5836 5826 5826 5825 5819 5817 5816 5813 5810 5807 5802 5793 5790 5786 5786 5783 5780 5780 5778 5778 5777 5776 5776 5776 5775 5774 5772 5772 5769 5768 5767 5766 5764 5761 5760 5758 5756 5754 5752
5810 5793 5808 5830 5842 5835 5825 5814 5837 5845 5838 5829 5828 5828 5827 5822 5824 5823 5821 5816 5810 5804 5796 5790 5788 5787 5784 5781 5779 5779 5779 5777 5776 5776 5777 5777 5775 5774 5773 5772 5772 5769 5765 5762 5759 5755 5753 5751 5749
5790 5793 5809 5824 5835 5832 5815 5820 5838 5845 5841 5835 5832 5834 5832 5830 5828 5830 5828 5827 5819 5812 5804 5797 5793 5791 5788 5783 5780 5778 5777 5779 5779 5778 5778 5778 5777 5775 5775 5774 5773 5771 5767 5764 5760 5754 5752 5752 5749
5811 5806 5800 5829 5846 5835 5826 5826 5834 5842 5839 5837 5835 5836 5836 5835 5843 5842 5837 5834 5828 5819 5810 5801 5795 5792 5788 5783 5779 5776 5774 5777 5780 5781 5781 5779 5779 5777 5776 5775 5775 5773 5770 5768 5763 5757 5753 5750 5749
5810 5805 5806 5827 5842 5828 5822 5821 5840 5841 5846 5849 5849 5844 5844 5843 5845 5842 5837 5833 5829 5824 5818 5810 5803 5795 5792 5787 5783 5782 5781 5781 5784 5784 5783 5781 5779 5778 5776 5775 5775 5774 5770 5767 5764 5761 5755 5752 5749
5816 5814 5816 5815 5828 5834 5826 5812 5831 5845 5848 5849 5853 5857 5854 5853 5850 5845 5840 5837 5833 5827 5823 5816 5811 5803 5797 5790 5782 5781 5782 5781 5778 5780 5781 5780 5778 5778 5778 5776 5775 5774 5772 5768 5767 5764 5759 5753 5751
5804 5831 5829 5825 5805 5782 5816 5763 5806 5824 5841 5849 5859 5859 5860 5860 5858 5853 5847 5837 5832 5829 5825 5822 5814 5807 5800 5794 5787 5785 5782 5777 5779 5781 5781 5780 5778 5778 5777 5776 5776 5776 5773 5770 5769 5766 5762 5757 5752
5811 5833 5823 5821 5797 5797 5791 5772 5804 5828 5823 5849 5866 5871 5869 5869 5867 5860 5855 5843 5833 5831 5825 5819 5816 5809 5803 5798 5792 5785 5784 5785 5784 5781 5778 5778 5778 5778 5778 5777 5776 5775 5775 5774 5771 5767 5763 5760 5757
5832 5824 5802 5785 5776 5755 5783 5778 5789 5817 5847 5858 5869 5877 5881 5875 5870 5865 5858 5849 5837 5833 5825 5821 5816 5811 5808 5802 5794 5789 5783 5785 5782 5780 5778 5777 5777 5778 5778 5777 5777 5777 5776 5775 5773 5770 5766 5763 5761
5815 5780 5741 5747 5736 5747 5775 5774 5796 5840 5851 5861 5873 5882 5884 5878 5871 5865 5859 5852 5844 5838 5831 5824 5820 5815 5812 5808 5804 5795 5791 5787 5785 5784 5781 5778 5776 5776 5779 5777 5777 5778 5778 5776 5774 5771 5771 5768 5765
5806 5784 5740 5743 5729 5745 5776 5777 5805 5842 5853 5870 5881 5879 5876 5873 5867 5867 5862 5856 5847 5841 5838 5834 5827 5825 5821 5816 5814 5809 5799 5794 5789 5787 5784 5782 5781 5781 5783 5780 5779 5779 5779 5778 5776 5774 5773 5772 5769
5803 5779 5787 5746 5738 5733 5758 5790 5823 5840 5846 5858 5861 5862 5862 5862 5860 5856 5852 5849 5848 5843 5839 5833 5831 5833 5830 5819 5809 5808 5806 5797 5794 5790 5789 5788 5787 5785 5783 5782 5780 5781 5781 5780 5778 5776 5775 5774 5773
5817 5803 5770 5745 5743 5744 5745 5754 5774 5805 5814 5833 5843 5843 5847 5852 5849 5846 5847 5846 5845 5843 5840 5835 5831 5829 5822 5817 5807 5801 5799 5804 5800 5793 5789 5790 5791 5788 5787 5783 5782 5782 5783 5781 5779 5779 5780 5776 5776
5784 5772 5765 5749 5737 5725 5722 5752 5794 5805 5816 5821 5832 5836 5840 5840 5841 5843 5844 5846 5843 5838 5838 5835 5833 5826 5813 5821 5812 5811 5794 5805 5804 5797 5795 5792 5792 5791 5789 5788 5785 5784 5783 5782 5780 5781 5783 5780 5777
5795 5782 5766 5738 5744 5728 5729 5747 5798 5810 5817 5826 5832 5832 5835 5836 5835 5836 5841 5839 5835 5831 5827 5825 5823 5816 5820 5816 5816 5810 5802 5808 5803 5801 5800 5798 5794 5793 5793 5791 5789 5788 5787 5784 5783 5785 5786 5783 5779